Weather History for Lewistown, MT

Change the Weather History Date:

Thursday, October 30, 2014

  Actual Average Record
Temperature  
Mean Temperature 45 °F 39 °F  
Max Temperature 59 °F 51 °F 75 °F (1987)
Min Temperature 30 °F 27 °F -10 °F (1935)
Degree Days  
Heating Degree Days 20 26  
Month to date heating degree days 417 634  
Since 1 July heating degree days 772 1111  
Cooling Degree Days 0 0  
Month to date cooling degree days 0 0  
Year to date cooling degree days 295 210  
Moisture  
Dew Point 30 °F    
Average Humidity 59    
Maximum Humidity 85    
Minimum Humidity 33    
Precipitation  
Precipitation 0.00 in 0.02 in 0.59 in (2000)
Month to date precipitation 0.86 1.10  
Year to date precipitation 17.43 15.45  
Snow  
Snow 0.00 in - - ()
Snow Depth 0.00 in    
Sea Level Pressure  
Sea Level Pressure 30.25 in    
Wind  
Wind Speed 9 mph (ESE)    
Max Wind Speed 18 mph    
Max Gust Speed 24 mph    
Visibility 10 miles    
Events      
T = Trace of Precipitation, MM = Missing Value Source: NWS Daily Summary

Daily Weather History Graph

Daily Weather History Graph

Search for Another Location

Airport:

Trip Planner

Search our weather history database for the weather conditions in past years. The results will help you decide how hot, cold, wet, or windy it might be!

Date:

Astronomy

Oct. 30, 2014 Rise Set
Actual Time 7:57 AM MDT 6:04 PM MDT
Civil Twilight 7:26 AM MDT 6:36 PM MDT
Nautical Twilight 6:50 AM MDT 7:12 PM MDT
Astronomical Twilight 6:14 AM MDT 7:47 PM MDT
Moon 2:05 PM MDT (10/30) No Moon Set
Length of Visible Light 11h 10m
Length of Day
10h 06m
Waxing Crescent, 46% of the Moon is Illuminated
Oct 30
Waxing Crescent
Oct 30
First Quarter
Nov 6
Full
Nov 14
Last Quarter
Nov 22
New

Hourly Weather History & Observations

Time (MDT) Temp. Windchill Dew Point Humidity Pressure Visibility Wind Dir Wind Speed Gust Speed Precip Events Conditions
12:54 AM 36.0 °F 28.5 °F 28.9 °F 76% 30.21 in 10.0 mi SW 10.4 mph - N/A   Clear
1:54 AM 35.1 °F 32.2 °F 28.0 °F 76% 30.24 in 10.0 mi Variable 3.5 mph - N/A   Clear
2:54 AM 34.0 °F 31.0 °F 27.0 °F 75% 30.25 in 10.0 mi South 3.5 mph - N/A   Clear
3:54 AM 30.9 °F 25.2 °F 26.1 °F 82% 30.26 in 10.0 mi SE 5.8 mph - N/A   Clear
4:54 AM 32.0 °F 26.4 °F 27.0 °F 82% 30.28 in 10.0 mi SSE 5.8 mph - N/A   Clear
5:54 AM 32.0 °F 26.4 °F 26.1 °F 79% 30.30 in 10.0 mi SE 5.8 mph - N/A   Clear
6:54 AM 30.9 °F 25.2 °F 26.1 °F 82% 30.31 in 10.0 mi SE 5.8 mph - N/A   Clear
7:54 AM 30.9 °F 23.5 °F 26.1 °F 82% 30.32 in 10.0 mi SE 8.1 mph - N/A   Clear
8:54 AM 37.9 °F 30.0 °F 28.9 °F 70% 30.32 in 10.0 mi South 12.7 mph - N/A   Clear
9:54 AM 43.0 °F 39.5 °F 30.9 °F 62% 30.32 in 10.0 mi East 5.8 mph - N/A   Clear
10:54 AM 50.0 °F - 33.1 °F 52% 30.30 in 10.0 mi East 3.5 mph - N/A   Clear
11:54 AM 55.0 °F - 30.9 °F 40% 30.29 in 10.0 mi Variable 3.5 mph - N/A   Clear
12:54 PM 57.0 °F - 28.9 °F 34% 30.29 in 10.0 mi Calm Calm - N/A   Clear
1:54 PM 57.9 °F - 30.0 °F 35% 30.27 in 10.0 mi East 5.8 mph - N/A   Clear
2:54 PM 55.9 °F - 33.1 °F 42% 30.27 in 10.0 mi East 15.0 mph - N/A   Clear
3:54 PM 55.9 °F - 33.1 °F 42% 30.25 in 10.0 mi East 15.0 mph - N/A   Clear
4:54 PM 54.0 °F - 30.9 °F 41% 30.25 in 10.0 mi East 15.0 mph - N/A   Clear
5:54 PM 51.1 °F - 30.9 °F 46% 30.25 in 10.0 mi East 12.7 mph - N/A   Clear
6:54 PM 48.0 °F - 32.0 °F 54% 30.25 in 10.0 mi East 13.8 mph - N/A   Clear
7:54 PM 46.9 °F - 33.1 °F 59% 30.24 in 10.0 mi East 13.8 mph - N/A   Clear
8:54 PM 46.9 °F - 32.0 °F 56% 30.21 in 10.0 mi East 13.8 mph - N/A   Clear
9:54 PM 46.0 °F 40.2 °F 33.1 °F 61% 30.17 in 10.0 mi East 12.7 mph - N/A   Clear
10:54 PM 46.0 °F 42.5 °F 32.0 °F 58% 30.14 in 10.0 mi East 6.9 mph - N/A   Clear
11:54 PM 44.1 °F 39.0 °F 32.0 °F 63% 30.10 in 10.0 mi East 9.2 mph - N/A   Clear